Theta_e
336 336 340 345 345 343 343 341 344 351 351 348 348 350 354 355 353 355 353 344 342 345 346 345 344 344 345 346 346 345 345 347 349 347 345 347 349 354 355 355 354 352
335 335 337 341 343 343 343 343 345 350 352 352 352 350 352 354 353 353 353 347 342 342 344 345 344 342 343 344 345 345 345 345 347 350 349 347 348 353 355 355 355 354
334 334 335 337 339 340 341 343 345 346 348 351 354 353 351 352 351 350 349 347 343 341 342 342 343 342 342 344 344 345 346 345 347 351 353 349 347 351 355 355 355 355
335 334 333 335 337 338 340 344 344 345 347 348 350 353 354 352 351 348 346 345 344 343 343 341 341 342 340 342 343 344 346 347 346 349 351 349 347 348 353 355 354 355
334 335 334 335 340 341 341 345 345 343 347 348 347 349 352 353 353 351 345 341 341 344 343 340 338 340 340 339 341 342 343 345 345 344 345 346 345 345 350 354 353 353
333 335 334 334 343 347 344 344 345 344 346 348 348 348 347 349 353 354 349 341 338 340 342 341 337 337 339 339 339 341 340 342 347 348 343 341 341 344 351 354 353 352
337 334 334 334 343 350 348 345 346 347 346 346 348 349 347 346 346 350 351 348 343 342 345 346 342 336 336 337 338 339 338 339 348 352 348 343 341 342 348 353 354 353
347 341 337 336 343 349 350 349 348 348 348 347 348 348 347 347 343 342 346 349 350 349 349 349 349 342 338 338 336 336 337 337 341 346 345 344 343 341 343 347 350 351
355 352 344 341 345 349 349 350 350 349 348 348 348 347 346 347 346 343 341 341 344 349 350 349 350 348 344 343 342 338 335 337 342 345 342 339 341 341 341 342 342 345
355 357 354 350 349 350 349 349 349 349 349 348 348 347 346 346 346 347 345 339 337 343 347 345 346 349 349 347 345 342 337 335 343 349 347 340 338 338 339 339 339 339
353 354 356 356 354 351 349 349 348 349 350 349 348 346 346 346 345 346 348 344 338 336 340 338 336 342 348 347 345 343 340 336 337 342 345 343 340 337 336 337 339 339
351 352 354 355 355 353 350 349 349 347 348 350 349 346 345 346 346 345 347 347 343 338 335 333 332 334 339 340 341 343 345 343 339 338 338 338 337 336 334 333 334 335
351 352 353 353 354 353 349 348 348 346 347 348 348 347 345 345 345 345 346 345 344 342 338 335 332 331 333 333 334 339 347 350 348 345 343 340 337 335 332 331 331 330
353 353 354 353 353 352 350 348 347 346 345 346 346 347 346 344 343 345 346 345 344 344 342 340 337 333 331 331 329 332 340 347 350 350 350 348 344 340 335 335 336 338
353 354 354 353 353 354 353 350 348 346 345 345 346 346 346 345 343 342 344 346 346 345 344 345 346 341 333 328 328 328 330 335 341 345 348 349 348 346 343 341 342 344
353 353 353 352 351 353 353 350 350 350 348 346 345 345 346 346 345 343 343 344 346 347 346 346 348 348 341 331 327 327 326 326 330 334 339 343 345 345 345 344 345 345
353 353 352 352 351 352 352 350 350 350 350 349 348 346 347 347 346 345 343 343 344 347 348 348 349 350 347 340 334 330 328 326 326 327 332 336 339 341 342 341 341 342
353 353 353 353 353 353 352 352 351 349 348 349 350 349 348 348 347 347 346 345 344 345 347 349 350 350 348 346 343 339 336 332 329 328 330 334 337 339 339 339 338 339
353 352 353 353 354 353 353 353 354 352 348 349 351 353 353 351 350 350 349 348 347 347 347 347 349 350 349 347 346 344 342 340 337 334 333 335 337 338 338 339 339 339
352 352 353 353 353 353 353 352 353 353 351 350 352 353 355 355 354 354 353 352 351 350 349 348 348 349 349 348 348 346 345 343 342 340 339 338 339 339 339 339 340 340
351 351 350 352 352 353 354 353 352 352 352 352 352 351 351 353 354 355 356 356 356 355 354 353 352 351 350 349 348 348 348 346 345 345 344 344 342 341 340 339 340 341
349 350 350 350 351 351 353 353 352 352 352 352 351 350 350 350 350 352 353 354 355 355 354 355 356 355 353 351 350 349 349 348 348 347 348 348 347 346 344 341 339 338
347 349 349 349 350 350 350 351 352 353 353 353 353 352 351 350 350 351 352 352 352 351 350 353 356 356 355 354 352 351 350 350 349 349 349 349 349 349 349 349 347 343
340 344 346 347 348 349 349 349 351 353 354 353 353 353 353 353 352 352 351 352 352 351 349 348 351 354 357 357 354 352 351 351 350 350 349 350 350 350 350 350 350 350
332 335 338 341 343 346 348 349 350 352 355 355 354 353 353 353 354 352 351 351 352 353 353 351 350 352 356 358 357 355 354 352 351 351 351 350 350 350 350 350 351 351
326 328 328 330 335 338 343 347 350 351 353 354 355 355 354 354 355 354 353 352 353 354 354 354 355 355 356 357 358 356 355 354 353 352 351 350 350 350 350 351 351 352
Wind_Speed
20 19 19 18 17 15 15 15 15 14 12 12 12 12 12 12 12 12 10 8 9 8 8 7 6 7 6 7 7 5 5 6 6 5 4 3 4 3 1 1 0 2
22 20 20 19 18 17 17 16 16 15 15 13 11 11 12 13 13 14 12 9 9 9 9 8 8 8 7 7 7 6 5 6 5 4 3 3 3 4 3 2 1 2
23 22 21 21 20 20 18 17 16 16 16 16 14 12 12 13 13 13 13 11 10 10 9 9 9 8 9 8 7 7 6 6 6 5 5 4 4 5 5 3 3 2
24 24 23 22 21 21 19 18 18 17 16 16 17 15 13 12 12 13 13 12 12 11 11 11 10 9 9 9 8 8 7 7 7 7 7 5 4 5 5 4 5 5
24 24 24 24 22 21 20 20 20 18 17 16 16 16 16 15 14 14 14 14 13 13 12 12 11 11 10 10 9 9 8 8 7 7 7 6 5 5 4 3 5 6
24 24 25 25 24 23 22 22 21 20 19 18 16 17 17 18 17 15 14 15 15 14 13 12 12 12 11 11 11 10 10 9 7 7 7 7 7 6 4 4 6 6
24 24 24 25 25 25 24 23 22 21 20 19 19 18 18 18 19 17 15 15 15 14 14 13 13 13 12 12 12 11 11 10 10 10 10 9 9 9 8 8 8 8
24 24 24 25 25 25 25 23 23 23 22 20 21 20 19 18 18 18 18 17 16 15 15 15 14 14 13 13 13 12 12 12 11 12 12 11 10 10 9 10 10 10
25 25 25 25 25 25 25 24 23 24 24 23 22 21 21 21 19 18 19 19 18 17 17 17 17 16 14 14 14 13 13 13 12 12 12 12 12 11 10 10 10 10
26 26 25 25 25 25 25 25 24 24 25 24 23 22 22 22 22 20 19 19 19 19 19 19 19 18 17 16 16 15 15 13 13 13 13 13 13 13 12 12 11 11
27 25 25 26 26 26 26 26 25 24 24 25 24 23 22 22 23 22 21 20 20 20 21 21 20 20 20 19 18 17 17 15 15 16 16 15 14 13 13 12 12 12
29 27 26 27 27 27 26 25 25 24 24 25 24 24 23 22 22 23 23 22 22 21 22 22 21 21 22 21 20 18 18 18 17 16 17 17 16 15 14 14 14 13
29 29 28 28 28 27 25 24 24 24 24 24 23 23 23 22 22 22 23 24 24 24 23 23 23 23 23 22 21 19 19 19 18 17 17 18 18 17 16 16 16 15
27 29 28 26 27 27 25 24 23 22 23 23 22 22 22 22 22 22 22 23 24 25 25 24 24 24 24 23 23 21 21 21 21 19 19 19 18 18 18 18 17 16
21 26 26 23 22 21 19 21 21 20 21 22 21 21 21 21 21 21 22 22 23 24 24 24 24 25 25 25 24 23 23 23 24 23 22 21 20 20 19 19 18 18
19 23 23 20 21 20 16 19 19 15 16 20 21 20 19 20 21 21 22 22 22 23 23 24 25 26 26 26 26 25 25 25 25 26 26 25 24 23 23 21 20 20
16 18 18 17 18 18 17 19 20 16 13 15 20 23 22 21 21 22 23 22 22 23 24 25 25 25 26 28 27 26 26 26 26 27 27 27 27 26 26 25 25 24
13 14 14 12 11 11 12 15 18 18 18 19 21 22 24 25 24 24 25 25 24 23 24 25 26 25 26 27 28 28 27 27 27 27 28 28 28 28 28 28 28 27
10 11 12 10 9 8 10 14 15 16 20 23 23 22 23 25 26 26 26 27 27 27 25 25 25 26 26 27 29 29 29 28 28 28 28 28 28 29 29 30 29 29
10 11 11 11 11 10 11 15 17 16 18 21 22 23 24 24 24 25 25 27 28 29 29 28 27 27 27 28 29 30 31 31 30 29 29 29 29 28 28 28 29 29
12 15 14 13 13 13 13 15 18 19 20 20 22 24 25 25 26 26 26 27 27 28 29 30 30 29 29 29 30 30 31 32 32 32 31 31 31 30 30 30 29 29
8 13 16 16 17 18 17 16 17 21 22 22 22 23 24 25 26 27 28 28 28 28 28 29 30 31 32 32 33 32 32 32 32 33 33 33 33 32 32 33 33 33
4 6 12 17 19 20 20 19 19 20 21 22 22 23 24 24 25 27 28 28 29 30 29 28 29 31 32 34 35 35 35 34 33 33 34 34 34 34 33 33 33 35
8 6 8 12 14 16 19 20 19 18 19 21 22 23 23 24 24 25 26 27 28 29 29 30 31 31 32 34 36 37 38 38 37 36 36 36 37 36 35 34 33 33
10 10 10 12 12 14 17 19 19 18 17 19 21 22 23 22 22 24 26 27 27 28 29 32 33 33 32 34 36 37 37 38 39 39 39 39 39 38 37 35 34 34
12 12 12 12 12 13 13 15 18 20 20 19 19 21 22 23 23 24 26 26 26 27 28 29 31 32 33 35 36 36 36 36 37 39 40 39 39 38 36 35 35 35
Wind_Direction
200 202 198 197 199 198 197 196 191 190 190 190 190 181 180 183 175 184 201 189 180 184 184 189 189 184 182 181 182 178 169 163 153 151 159 167 151 131 125 110 240 226
199 202 202 201 201 199 200 200 197 193 189 187 193 193 189 190 186 186 196 194 185 189 191 191 194 193 190 190 190 186 174 166 164 167 186 201 165 149 179 214 242 280
202 201 202 204 205 203 202 202 202 200 196 189 188 197 200 197 195 192 193 195 191 193 197 196 197 197 195 195 194 191 186 181 182 188 201 213 199 177 187 211 216 242
205 204 202 203 207 206 202 202 205 205 203 199 193 191 192 199 207 203 197 198 196 196 199 198 201 202 200 199 197 195 197 199 196 199 208 212 211 204 195 204 202 198
207 208 205 202 204 208 204 201 206 206 202 205 205 198 190 191 203 212 207 203 201 202 203 202 202 205 206 204 202 202 206 210 211 212 217 217 220 220 205 221 229 215
209 209 211 205 200 204 208 204 205 206 202 202 206 208 202 195 197 207 213 211 207 207 209 209 207 206 210 212 207 208 214 212 216 233 237 226 225 226 211 232 256 248
212 210 213 212 203 201 207 207 204 204 203 202 202 207 210 209 207 206 208 215 213 210 209 212 216 213 211 217 216 213 219 215 208 223 236 230 227 226 213 214 237 249
218 213 212 213 208 204 206 207 206 205 203 203 203 205 207 213 220 215 208 213 215 213 211 210 218 225 219 220 222 218 220 222 217 223 233 233 231 233 226 220 227 239
218 217 215 212 209 208 207 207 208 207 205 203 203 207 207 208 218 223 216 215 214 215 218 213 214 225 227 223 224 225 225 222 221 230 240 241 235 235 238 238 238 240
218 216 215 212 208 207 209 208 208 209 208 206 204 206 211 209 211 218 222 222 217 214 220 223 218 219 226 226 224 228 233 227 217 221 234 242 241 238 241 244 247 248
226 222 217 213 209 207 209 208 207 208 210 210 207 205 212 215 212 212 219 227 226 219 222 229 227 221 223 228 227 228 235 237 228 222 227 236 242 244 245 245 247 249
226 228 221 216 212 210 210 209 208 209 210 211 211 207 209 216 217 215 216 223 230 229 227 230 232 229 228 231 231 229 232 239 238 233 232 235 240 244 245 244 244 246
220 222 220 218 217 213 211 210 209 210 211 212 213 211 209 213 218 221 219 221 228 233 232 232 233 233 233 235 236 230 228 235 240 239 237 239 241 243 245 244 246 249
219 218 225 231 224 216 215 215 213 212 212 213 215 214 213 213 216 223 225 223 227 233 234 234 236 237 236 237 239 235 227 228 234 236 235 238 241 244 244 243 243 247
227 223 237 254 243 230 223 214 214 219 216 216 218 215 215 217 217 220 226 226 227 233 235 233 234 238 241 241 242 241 235 231 232 234 233 233 236 239 241 242 240 240
240 230 238 256 256 253 240 214 212 222 220 217 222 221 219 221 221 220 224 229 229 232 237 237 233 234 240 244 244 243 242 238 236 236 237 236 235 234 235 237 238 238
237 234 236 244 244 248 246 230 225 230 226 216 218 224 225 224 223 222 223 227 230 231 233 236 234 232 236 244 247 246 244 243 241 239 239 240 240 238 236 237 237 238
227 233 245 251 243 240 240 230 227 232 232 220 212 218 225 227 227 227 225 225 228 230 232 234 235 234 233 238 246 250 249 248 246 243 240 239 241 241 241 241 241 242
230 233 247 256 253 245 232 222 225 234 232 224 216 214 218 221 224 229 231 230 228 229 231 234 238 239 238 238 241 246 250 250 249 247 243 241 242 244 245 246 246 246
240 239 248 253 247 242 232 225 227 231 228 227 227 224 222 221 220 223 229 233 234 234 234 235 238 242 246 247 244 244 247 249 250 249 247 244 242 243 245 248 250 251
252 248 253 257 252 247 243 234 227 226 227 230 232 232 232 230 227 225 227 229 232 236 238 239 241 242 244 248 250 250 250 250 251 250 249 248 246 243 242 243 246 249
271 253 251 256 255 250 249 244 235 230 229 231 234 236 236 236 235 235 235 234 234 237 240 242 244 245 243 242 245 249 251 253 252 251 251 251 251 250 247 245 243 244
313 254 245 251 252 247 245 245 245 241 237 235 236 237 235 236 237 238 239 238 237 239 243 245 245 247 246 244 242 242 244 247 248 249 250 251 252 254 254 252 249 247
350 322 279 272 268 259 251 247 247 247 245 242 239 238 238 240 240 241 241 241 241 243 246 248 248 248 247 247 246 243 242 243 243 244 247 249 252 256 257 256 255 253
5 347 325 311 302 286 270 259 252 248 247 246 243 242 245 247 246 244 241 241 243 246 248 250 252 251 248 248 248 246 245 245 244 244 245 248 252 255 258 258 258 256
4 353 345 339 331 316 294 274 260 252 250 252 249 247 248 249 248 248 246 245 246 249 254 257 258 256 253 250 249 249 249 249 247 246 247 249 252 254 256 258 259 260